User: anonymous   Login
Location: Haliburton Scout Reserve
(45.0900°N, 78.3200°W)
Time: 14:26:30
(UTC-04:00)
Language:

CUTE 1.7 + AOD 2 - Orbit

View from above orbital plane
View from above orbital plane
View from above satellite
View from above satellite

Ground track
Ground track

The orbit data is extracted from the following two-line orbital elements,

1 32785U 08021C   22136.18561715  .00002763  00000-0  29572-3 0  9990
2 32785  97.6551 108.0639 0012290 349.0066  11.0881 14.89455232761757
Epoch (UTC): 16 May 2022 04:27:17
Eccentricity: 0.0012290
inclination: 97.6551°
perigee height: 591 km
apogee height: 608 km
right ascension of ascending node: 108.0639°
argument of perigee: 349.0066°
revolutions per day: 14.89455232
mean anomaly at epoch: 11.0881°
orbit number at epoch: 76175

The dashed part of the orbit path shows where the satellite is in the earth's shadow,  

DLR